Weather History for Windsor, ON

Change the Weather History Date:

Wednesday, October 10, 2012

  Actual Average Record
Temperature  
Mean Temperature 47 °F -  
Max Temperature 52 °F 56 °F 80 °F (2010)
Min Temperature 41 °F 40 °F 39 °F (1996)
Degree Days  
Heating Degree Days 18    
Moisture  
Dew Point 37 °F    
Average Humidity 68    
Maximum Humidity 93    
Minimum Humidity 36    
Precipitation  
Precipitation 0.08 in 0.08 in - ()
Sea Level Pressure  
Sea Level Pressure 29.95 in    
Wind  
Wind Speed 13 mph ()    
Max Wind Speed 28 mph    
Max Gust Speed 34 mph    
Visibility 13.8 miles    
Events Rain    
Averages and records for this station are not official NWS values.
T = Trace of Precipitation, MM = Missing Value Source: Averaged Metar Reports

Daily Weather History Graph

Daily Weather History Graph

Search for Another Location

Airport:

Trip Planner

Search our weather history database for the weather conditions in past years. The results will help you decide how hot, cold, wet, or windy it might be!

Date:

Astronomy

Oct. 10, 2012 Rise Set
Actual Time 7:39 AM EDT 6:57 PM EDT
Civil Twilight 7:11 AM EDT 7:25 PM EDT
Nautical Twilight 6:38 AM EDT 7:57 PM EDT
Astronomical Twilight 6:06 AM EDT 8:30 PM EDT
Moon 2:08 AM EDT (10/10) 4:04 PM EDT (10/10)
Length of Visible Light 12h 14m
Length of Day
11h 17m
Waning Crescent, 27% of the Moon is Illuminated
Oct 10
Waning Crescent
Oct 15
New
Oct 21
First Quarter
Oct 29
Full
Nov 6
Last Quarter

Hourly Weather History & Observations

Time (EDT) Temp. Windchill Dew Point Humidity Pressure Visibility Wind Dir Wind Speed Gust Speed Precip Events Conditions
12:00 AM 53.6 °F - 42.8 °F 67% 29.87 in 15.0 mi SSW 13.8 mph - N/A   Mostly Cloudy
1:00 AM 53.6 °F - 42.8 °F 67% 29.85 in 15.0 mi SSW 15.0 mph 21.9 mph N/A   Mostly Cloudy
2:00 AM 53 °F - 42 °F 57% 29.83 in 15 mi SSW 16.1 mph - -   Overcast
2:00 AM 51.8 °F - 42.8 °F 71% 29.83 in 15.0 mi SSW 16.1 mph 21.9 mph N/A   Overcast
3:00 AM 51.8 °F - 42.8 °F 71% 29.81 in 15.0 mi SSW 16.1 mph 23.0 mph N/A   Overcast
4:00 AM 51.8 °F - 42.8 °F 71% 29.80 in 15.0 mi SW 15.0 mph 21.9 mph N/A   Overcast
5:00 AM 48.2 °F - 42.8 °F 82% 29.82 in 15.0 mi NW 17.3 mph 24.2 mph N/A Rain Light Rain Showers
6:00 AM 46.4 °F 41.1 °F 44.6 °F 93% 29.84 in 8.0 mi NW 11.5 mph - N/A Rain Light Rain Showers
7:00 AM 44.6 °F 40.2 °F 42.8 °F 93% 29.86 in 15.0 mi West 8.1 mph - N/A Rain Light Rain Showers
7:29 AM - - - N/A% - 12.0 mi West 6.9 mph - N/A   Overcast
8:00 AM 44 °F - 42 °F 90% 29.88 in 15 mi West 8.1 mph - - Rain Light Rain Showers
8:00 AM 44.6 °F 40.2 °F 42.8 °F 93% 29.88 in 15.0 mi West 8.1 mph - N/A   Mostly Cloudy
9:00 AM 44.6 °F 39.7 °F 42.8 °F 93% 29.91 in 15.0 mi West 9.2 mph - N/A   Mostly Cloudy
10:00 AM 44.6 °F 38.8 °F 41.0 °F 87% 29.92 in 15.0 mi West 11.5 mph - N/A   Mostly Cloudy
11:00 AM 46.4 °F 40.1 °F 41.0 °F 81% 29.94 in 15.0 mi West 15.0 mph 20.7 mph N/A   Mostly Cloudy
12:00 PM 48.2 °F - 39.2 °F 71% 29.95 in 15.0 mi West 12.7 mph 18.4 mph N/A   Mostly Cloudy
1:00 PM 50.0 °F - 37.4 °F 62% 29.96 in 15.0 mi WNW 11.5 mph 17.3 mph N/A   Mostly Cloudy
2:00 PM 50 °F - 37 °F 50% 29.95 in 15 mi West 18.4 mph - -   Partly Cloudy
2:00 PM 50.0 °F - 37.4 °F 62% 29.95 in 15.0 mi West 17.3 mph 23.0 mph N/A   Mostly Cloudy
2:51 PM - - - N/A% - 10.0 mi WNW 19.6 mph 28.8 mph N/A Rain Light Rain Showers
3:00 PM 46.4 °F 39.2 °F 39.2 °F 76% 29.96 in 10.0 mi West 18.4 mph 27.6 mph N/A Rain Light Rain Showers
3:32 PM - - - N/A% - 15.0 mi West 16.1 mph - N/A   Mostly Cloudy
3:52 PM - - - N/A% - 6.0 mi WNW 27.6 mph 34.5 mph N/A Rain Light Rain Showers
4:00 PM 44.6 °F 36.9 °F 39.2 °F 81% 29.99 in 10.0 mi WNW 18.4 mph 34.5 mph N/A   Mostly Cloudy
4:32 PM - - - N/A% - 10.0 mi West 15.0 mph 23.0 mph N/A   Mostly Cloudy
5:00 PM 48.2 °F - 30.2 °F 50% 30.01 in 15.0 mi West 21.9 mph 32.2 mph N/A   Mostly Cloudy
6:00 PM 46.4 °F 38.5 °F 26.6 °F 46% 30.04 in 15.0 mi West 21.9 mph - N/A   Mostly Cloudy
7:00 PM 46.4 °F 39.0 °F 28.4 °F 50% 30.06 in 15.0 mi WNW 19.6 mph - N/A   Mostly Cloudy
8:00 PM 44 °F - 26 °F 36% 30.10 in 15 mi WNW 21.9 mph - -   Partly Cloudy
8:00 PM 44.6 °F 37.2 °F 26.6 °F 49% 30.10 in 15.0 mi West 17.3 mph 25.3 mph N/A   Mostly Cloudy
9:00 PM 44.6 °F 38.4 °F 26.6 °F 49% 30.14 in 15.0 mi WNW 12.7 mph 20.7 mph N/A   Mostly Cloudy
10:00 PM 42.8 °F 36.6 °F 26.6 °F 53% 30.16 in 15.0 mi West 11.5 mph - N/A   Partly Cloudy
11:00 PM 41.0 °F 37.1 °F 28.4 °F 61% 30.17 in 15.0 mi WSW 5.8 mph - N/A   Clear